Wind_Speed
16 17 17 17 18 19 21 21 22 21 21 22 24 25 25 26 27 28 29 31 32 32 33 34 36 39 41 41 42 42 43 43 43 43 43 44 44 46 46 45 45 44 43 42
18 18 18 18 19 21 22 22 23 23 22 23 24 24 25 26 26 28 29 30 32 32 32 33 35 38 40 41 42 42 42 41 42 43 42 42 43 45 45 44 43 43 43 41
18 19 19 19 20 21 22 24 24 24 22 23 23 23 23 24 26 27 28 29 30 32 33 33 33 36 37 39 40 41 41 40 41 42 41 41 42 43 43 42 42 42 42 42
18 20 20 20 21 22 23 22 23 23 23 24 24 24 24 25 25 26 26 27 29 30 32 33 33 34 35 36 37 38 39 40 40 41 40 40 39 40 41 41 40 40 41 42
19 19 20 20 21 22 22 21 20 21 22 24 24 25 24 25 26 27 27 27 28 29 30 31 32 33 34 35 35 36 37 38 40 40 40 39 39 40 40 40 39 39 40 40
20 20 21 21 22 22 22 21 20 21 22 23 24 25 25 26 27 27 27 28 29 29 29 29 30 31 32 33 34 35 36 37 38 39 39 39 39 39 39 39 39 39 39 39
20 21 21 22 23 23 22 22 22 22 22 23 24 24 24 26 27 27 27 28 29 29 29 29 29 29 29 30 32 33 34 35 35 36 37 38 38 37 38 38 38 38 39 39
22 22 22 22 23 23 22 22 23 23 24 24 24 23 23 24 25 26 27 27 28 28 27 28 28 28 29 29 30 31 33 34 34 34 35 36 37 37 38 38 39 39 39 39
23 23 23 24 24 24 24 24 24 24 24 24 23 23 24 24 24 24 25 26 26 26 26 27 28 28 29 29 30 31 31 32 34 34 34 35 36 37 38 38 38 38 39 39
24 23 24 25 25 26 26 26 25 25 25 25 25 24 24 24 24 25 24 24 24 24 25 26 27 28 28 28 29 31 31 31 32 34 35 35 36 37 37 37 37 36 36 36
25 24 25 26 26 27 27 27 27 27 27 27 26 25 25 24 25 25 25 25 25 25 25 26 26 27 27 27 28 29 30 31 31 32 32 34 34 34 34 35 35 34 34 34
25 26 27 27 28 28 28 28 28 28 28 28 27 26 25 25 25 25 25 25 25 25 26 26 26 26 26 26 26 27 28 29 30 31 31 31 31 32 32 33 33 33 34 33
26 27 27 27 27 28 28 28 28 28 28 27 26 25 25 25 25 24 24 24 23 23 24 24 24 24 24 24 25 25 26 27 28 29 29 29 29 29 30 31 31 31 31 31
27 27 27 27 27 27 27 28 28 28 27 26 26 25 24 24 24 23 22 22 22 22 22 22 22 22 22 23 23 24 25 25 26 27 28 28 28 28 29 29 30 30 30 30
27 27 27 27 27 27 27 27 27 27 26 26 25 24 23 23 22 22 22 22 22 22 21 21 21 21 21 21 22 22 23 24 24 25 26 27 27 28 28 28 28 29 28 28
27 27 27 27 27 27 27 27 27 26 26 25 24 23 23 23 22 22 22 22 22 21 21 21 21 21 21 21 22 22 22 23 23 24 25 26 26 26 27 27 27 27 27 27
27 27 27 27 27 27 27 27 26 26 26 25 24 23 23 23 23 22 22 22 22 21 21 21 21 21 21 21 21 21 21 22 22 22 23 24 24 24 25 26 26 26 26 26
26 26 26 26 27 27 27 26 26 26 25 24 24 23 23 22 22 22 22 21 21 20 20 20 19 19 20 20 19 19 19 20 21 21 21 21 21 21 21 22 24 24 25 26
25 25 26 26 26 27 27 26 25 25 24 24 23 22 22 22 22 21 21 21 20 19 19 19 18 18 19 19 18 18 18 18 18 19 19 20 20 20 20 21 22 23 24 25
26 26 26 26 26 26 26 25 25 24 23 22 21 21 21 21 21 20 20 19 18 18 18 17 17 17 16 16 16 16 17 17 17 17 17 18 18 19 19 19 20 20 20 21
26 26 26 26 26 26 26 25 24 24 22 21 21 20 20 20 20 19 18 17 17 17 16 16 15 15 14 14 14 14 15 15 15 15 16 16 17 17 17 17 17 17 18 19
26 26 26 26 26 26 25 24 23 23 21 20 20 20 20 19 18 18 17 16 16 15 15 14 14 13 13 13 13 13 13 13 14 14 15 15 15 15 15 15 15 16 16 16
26 26 26 26 26 25 24 24 23 21 20 19 19 19 18 17 16 16 16 15 14 14 13 13 13 12 12 12 12 12 12 12 12 13 14 14 14 14 14 14 14 14 14 15
25 26 26 26 25 24 23 22 21 20 19 18 18 17 16 14 14 13 13 13 13 13 13 12 12 12 12 12 11 11 10 11 12 12 13 13 13 13 13 13 13 13 13 13
26 26 27 26 24 23 22 21 20 19 18 17 16 15 14 12 12 12 12 12 12 12 12 12 12 12 12 12 11 10 10 10 11 11 11 12 12 13 13 13 13 13 12 12
26 27 26 24 23 22 21 20 19 18 17 17 15 14 13 12 11 12 12 11 12 12 12 12 12 11 11 11 10 10 10 11 11 11 12 12 12 11 12 12 11 11 11 11
26 25 24 23 21 20 19 18 18 17 16 15 14 13 12 11 11 11 11 12 12 11 11 11 11 11 11 11 11 10 10 10 11 11 12 12 12 11 11 10 11 10 10 10
Wind_Direction
297 297 294 289 288 288 286 286 286 287 285 279 277 277 273 268 262 259 258 257 257 256 254 252 251 251 252 252 251 250 250 250 252 253 253 251 251 251 253 253 253 253 254 255
298 298 296 291 291 290 286 285 285 287 287 283 282 280 275 270 265 264 262 260 259 258 257 255 254 254 254 253 252 252 250 250 250 251 251 251 250 250 251 252 252 253 253 255
296 298 298 295 294 293 290 287 286 286 285 282 282 280 277 272 268 267 266 263 262 261 259 257 256 255 255 254 252 251 248 247 248 248 249 249 249 250 250 250 251 253 253 255
299 296 297 300 297 294 293 293 289 285 282 281 281 280 277 272 270 269 269 265 263 262 261 260 258 256 254 253 252 251 247 245 246 247 248 248 247 247 248 250 251 252 254 254
300 300 300 303 303 300 297 297 293 288 285 283 282 281 277 274 272 271 270 267 264 264 264 263 260 258 255 254 252 251 249 246 245 246 246 247 248 248 248 249 251 252 253 254
300 301 303 304 303 302 300 298 296 292 290 288 285 282 279 277 275 273 271 269 266 266 266 263 261 260 258 255 252 250 249 247 246 247 247 248 249 248 248 250 251 253 254 255
298 300 301 303 303 301 300 300 296 293 293 292 290 286 282 278 276 274 273 270 269 267 266 264 262 261 259 256 253 249 247 246 247 249 248 248 248 248 249 250 251 253 254 254
300 299 300 302 302 301 301 299 297 295 294 293 292 290 286 281 278 276 274 271 270 268 266 265 264 264 262 258 255 251 248 248 248 248 248 247 248 249 250 251 252 253 254 255
300 298 297 299 299 301 300 299 298 297 295 293 291 290 289 284 281 279 276 273 272 270 267 267 266 265 263 260 255 252 251 249 249 249 249 250 250 250 251 252 252 253 253 254
298 298 298 298 299 299 298 297 297 296 294 291 288 289 287 285 283 281 278 275 273 271 268 267 267 266 264 260 256 253 251 251 251 250 250 250 250 250 250 250 251 252 252 254
298 298 297 295 297 299 298 296 296 296 293 291 290 287 284 283 283 282 279 278 275 272 270 268 267 264 263 260 258 255 253 252 252 252 250 251 251 251 249 249 249 250 251 252
300 298 297 297 297 298 298 298 299 296 292 291 290 287 284 284 283 283 282 280 277 274 272 270 267 263 261 260 258 257 256 254 253 251 250 251 251 249 248 248 247 248 249 251
301 301 300 299 298 299 299 300 300 299 296 291 290 287 285 283 282 283 282 281 278 275 274 271 266 261 260 259 259 258 256 254 253 251 250 250 249 248 247 248 247 247 248 251
301 302 302 301 301 300 300 301 302 301 298 292 289 286 284 283 281 282 282 280 278 277 275 271 266 263 262 261 260 258 256 254 253 253 251 250 249 249 249 249 249 249 249 250
302 303 304 304 304 303 302 301 302 302 299 294 290 285 283 282 280 281 282 281 280 278 276 271 267 265 265 264 262 259 257 255 255 254 252 251 251 251 250 249 249 248 247 248
302 304 305 305 305 304 303 302 302 302 298 293 289 285 281 280 280 280 282 282 281 279 275 272 268 266 265 265 263 260 258 257 255 254 252 252 251 250 248 248 248 247 246 247
302 303 304 304 304 304 302 302 302 302 300 293 288 285 281 280 281 282 281 281 279 278 276 273 269 267 265 265 262 260 259 257 255 254 253 252 251 249 248 247 246 245 245 246
303 304 306 307 306 305 303 301 301 300 299 296 290 285 281 280 281 282 280 280 278 276 275 272 269 267 265 264 262 260 258 258 256 254 251 250 248 248 246 245 244 244 245 247
303 305 307 308 307 307 305 303 302 300 298 295 292 287 283 282 282 281 280 280 277 273 272 269 267 267 265 263 262 259 258 258 256 252 247 245 245 246 244 243 245 246 247 246
303 305 306 307 308 308 307 305 304 301 297 294 292 290 285 282 281 281 280 279 277 273 270 267 266 265 263 260 257 255 255 255 253 249 244 241 242 244 243 244 244 245 245 245
303 304 306 307 309 309 308 307 304 302 298 296 294 292 288 283 280 278 278 278 275 271 267 265 265 261 259 258 255 254 254 252 249 246 243 242 242 242 242 242 242 244 245 245
301 303 305 306 309 309 308 306 304 301 299 297 296 294 289 283 278 275 274 274 271 267 264 263 261 257 256 256 253 252 250 247 245 242 240 240 239 239 239 239 241 243 243 245
299 301 304 306 308 309 308 306 305 302 298 297 297 296 291 283 276 272 269 268 265 262 261 260 257 252 251 251 250 249 246 242 241 239 236 235 235 235 236 238 240 241 244 247
298 300 303 306 307 307 307 306 304 301 298 298 298 295 291 281 272 268 265 263 261 259 258 257 253 249 247 247 247 247 243 240 238 236 235 232 232 233 235 238 239 240 244 247
297 299 301 304 305 306 306 304 301 298 295 295 295 293 287 279 270 264 262 261 258 255 255 254 250 248 245 243 242 241 241 240 237 235 235 233 233 233 235 238 239 240 243 245
296 299 300 301 302 303 304 303 299 294 292 292 292 289 283 275 270 264 261 258 255 252 251 250 247 244 240 238 237 238 239 240 239 236 232 232 233 235 237 238 238 238 241 241
295 297 297 297 299 301 302 301 297 291 287 287 287 284 279 273 269 263 259 255 252 250 249 245 241 237 235 235 237 238 238 238 236 232 230 231 233 234 234 233 232 233 236 235
Height
5619 5617 5614 5613 5612 5610 5608 5606 5605 5604 5603 5602 5601 5600 5599 5599 5599 5600 5600 5602 5603 5604 5606 5608 5610 5612 5613 5615 5617 5619 5622 5624 5627 5629 5632 5635 5638 5641 5644 5646 5649 5651 5653 5655
5615 5612 5610 5609 5607 5605 5603 5601 5599 5597 5597 5596 5594 5593 5592 5592 5592 5592 5593 5594 5594 5595 5596 5598 5599 5601 5603 5604 5606 5608 5610 5613 5616 5618 5621 5624 5626 5629 5632 5635 5637 5640 5642 5644
5610 5607 5605 5604 5603 5600 5597 5595 5593 5591 5592 5589 5588 5586 5585 5585 5584 5584 5585 5585 5586 5587 5587 5588 5589 5590 5592 5593 5595 5597 5599 5602 5605 5608 5611 5613 5615 5618 5621 5624 5626 5628 5630 5632
5605 5603 5600 5601 5597 5594 5591 5589 5587 5585 5584 5582 5581 5580 5579 5578 5577 5577 5577 5577 5577 5578 5578 5579 5579 5580 5581 5582 5584 5586 5588 5592 5595 5597 5600 5602 5605 5608 5610 5613 5615 5617 5619 5621
5599 5596 5595 5594 5591 5587 5585 5584 5581 5579 5577 5575 5574 5573 5573 5571 5570 5569 5569 5568 5568 5569 5569 5569 5569 5570 5571 5572 5574 5576 5578 5581 5584 5587 5589 5592 5594 5597 5599 5601 5604 5606 5608 5610
5594 5591 5589 5589 5585 5581 5579 5577 5575 5572 5570 5568 5567 5566 5566 5564 5563 5562 5561 5561 5560 5560 5560 5560 5560 5560 5561 5563 5564 5566 5568 5571 5573 5576 5579 5581 5584 5586 5588 5591 5593 5595 5598 5600
5588 5585 5584 5583 5578 5575 5574 5572 5568 5566 5563 5561 5559 5558 5558 5556 5555 5554 5553 5553 5552 5552 5551 5551 5551 5551 5552 5553 5554 5556 5559 5561 5563 5566 5568 5571 5573 5576 5578 5580 5583 5585 5587 5589
5582 5579 5580 5575 5572 5570 5567 5564 5561 5559 5556 5554 5552 5550 5549 5548 5547 5546 5545 5544 5543 5543 5543 5542 5542 5543 5543 5544 5545 5547 5549 5551 5554 5556 5558 5560 5563 5565 5567 5570 5572 5574 5576 5579
5577 5576 5572 5569 5566 5563 5560 5557 5554 5552 5549 5547 5545 5543 5542 5541 5539 5538 5537 5536 5535 5534 5534 5534 5534 5534 5535 5535 5536 5538 5540 5542 5544 5546 5548 5551 5553 5555 5557 5559 5561 5564 5566 5568
5570 5569 5565 5562 5558 5556 5553 5550 5547 5545 5542 5540 5538 5536 5534 5533 5531 5530 5529 5528 5527 5526 5526 5526 5526 5526 5526 5526 5527 5529 5531 5533 5534 5536 5538 5540 5542 5544 5547 5549 5551 5553 5555 5558
5563 5561 5558 5555 5551 5548 5546 5543 5540 5537 5534 5532 5529 5528 5526 5524 5523 5522 5521 5520 5519 5518 5518 5517 5517 5517 5517 5518 5519 5520 5522 5524 5525 5527 5528 5530 5532 5534 5536 5538 5541 5544 5546 5548
5556 5554 5550 5548 5544 5541 5538 5535 5532 5529 5526 5523 5521 5519 5517 5516 5515 5513 5512 5511 5510 5510 5509 5509 5508 5509 5509 5510 5511 5512 5513 5514 5516 5517 5519 5520 5522 5524 5526 5529 5531 5534 5536 5538
5549 5546 5542 5540 5536 5533 5530 5527 5524 5520 5517 5515 5513 5510 5509 5508 5507 5506 5504 5503 5502 5502 5501 5501 5500 5500 5501 5502 5502 5503 5504 5505 5507 5508 5510 5512 5513 5515 5517 5519 5522 5524 5527 5529
5540 5537 5535 5531 5528 5525 5522 5519 5516 5512 5509 5507 5504 5503 5501 5500 5499 5498 5497 5495 5494 5494 5493 5493 5492 5493 5493 5493 5494 5495 5496 5497 5498 5500 5501 5503 5504 5506 5508 5510 5513 5515 5517 5520
5532 5529 5527 5523 5520 5517 5514 5511 5508 5505 5501 5499 5497 5495 5494 5492 5491 5490 5489 5488 5487 5487 5486 5485 5485 5485 5485 5486 5487 5487 5488 5489 5490 5491 5492 5494 5496 5497 5499 5501 5503 5506 5508 5511
5525 5521 5518 5515 5512 5509 5506 5503 5500 5497 5494 5492 5490 5488 5486 5485 5484 5483 5482 5481 5480 5479 5479 5478 5478 5478 5478 5479 5479 5480 5480 5481 5482 5483 5484 5486 5487 5489 5491 5493 5495 5497 5500 5502
5517 5514 5511 5508 5505 5501 5498 5495 5492 5489 5486 5484 5482 5480 5479 5478 5477 5476 5474 5473 5472 5472 5471 5471 5471 5471 5471 5471 5472 5472 5473 5473 5474 5475 5476 5477 5479 5481 5483 5485 5487 5489 5492 5494
5509 5507 5503 5500 5497 5493 5490 5487 5484 5481 5478 5476 5474 5473 5471 5470 5469 5468 5467 5466 5465 5464 5464 5463 5463 5463 5464 5464 5465 5465 5466 5466 5467 5467 5468 5470 5472 5474 5475 5478 5480 5482 5485 5487
5502 5499 5496 5493 5489 5486 5483 5479 5476 5474 5471 5469 5467 5465 5464 5463 5462 5461 5460 5459 5458 5458 5457 5457 5457 5457 5457 5457 5458 5458 5459 5459 5460 5460 5461 5463 5465 5467 5469 5471 5473 5475 5477 5480
5495 5492 5489 5485 5482 5479 5475 5472 5469 5466 5464 5461 5460 5458 5456 5455 5454 5453 5452 5452 5451 5451 5450 5450 5450 5451 5451 5451 5451 5452 5452 5453 5453 5454 5456 5457 5460 5462 5463 5465 5467 5469 5471 5473
5487 5484 5481 5478 5475 5471 5468 5465 5462 5459 5456 5454 5452 5451 5449 5448 5447 5446 5446 5445 5445 5444 5444 5444 5445 5445 5445 5445 5446 5446 5447 5447 5448 5449 5451 5453 5455 5456 5458 5460 5462 5463 5465 5467
5479 5477 5474 5471 5468 5464 5461 5458 5455 5452 5450 5447 5446 5444 5442 5441 5440 5439 5439 5439 5439 5438 5439 5439 5439 5440 5440 5441 5441 5442 5442 5443 5444 5445 5446 5448 5450 5452 5454 5455 5457 5458 5460 5461
5472 5469 5466 5464 5461 5457 5454 5451 5448 5445 5443 5441 5439 5437 5436 5434 5434 5433 5433 5433 5433 5433 5434 5434 5435 5435 5436 5436 5437 5437 5438 5438 5439 5441 5442 5444 5446 5448 5450 5451 5453 5454 5456 5457
5464 5462 5459 5456 5453 5450 5447 5444 5442 5439 5437 5435 5434 5432 5430 5429 5428 5428 5428 5428 5428 5429 5430 5430 5430 5431 5432 5432 5433 5434 5434 5435 5436 5437 5439 5441 5442 5444 5446 5448 5449 5450 5452 5453
5456 5454 5451 5449 5446 5443 5441 5438 5436 5434 5432 5430 5428 5427 5425 5424 5424 5424 5424 5424 5424 5424 5425 5426 5426 5427 5428 5428 5429 5430 5431 5432 5433 5434 5436 5437 5439 5440 5442 5444 5445 5446 5448 5449
5449 5446 5444 5441 5439 5437 5434 5432 5430 5428 5426 5425 5423 5422 5421 5420 5420 5419 5419 5420 5420 5420 5421 5421 5422 5423 5424 5425 5426 5427 5428 5429 5430 5431 5432 5434 5435 5437 5438 5440 5441 5442 5444 5445
5441 5439 5436 5434 5432 5430 5428 5426 5424 5423 5421 5420 5419 5417 5416 5416 5415 5415 5415 5416 5416 5416 5417 5418 5418 5419 5420 5421 5422 5423 5424 5425 5426 5428 5429 5431 5432 5433 5435 5436 5438 5439 5440 5442